Regional Weather Roundup
Issued by NWS

Home | Current Version | Previous Version | Text Only | Print | Product List | Glossary On
Versions: 1 2 3 4 5 6 7 8 9 10 11 12 13 14 15 16 17 18 19 20 21 22 23 24 25 26 27 28 29 30 31 32 33 34 35 36 37 38 39 40 41 42 43 44 45 46 47 48 49 50
000
ASUS43 KIND 122209
RWRIN

WEATHER ROUNDUP FOR INDIANA
NATIONAL WEATHER SERVICE INDIANAPOLIS IN
500 PM EST FRI FEB 12 2016

NOTE: "FAIR" INDICATES FEW OR NO CLOUDS BELOW 12,000 FEET WITH NO
SIGNIFICANT WEATHER AND/OR OBSTRUCTIONS TO VISIBILITY.

* - STATION DOES NOT REPORT WEATHER SUCH AS PRECIPITATION OR FOG.

+ - STATION NOT QUALITY CONTROLLED BY THE NATIONAL WEATHER SERVICE.
    USE DATA WITH CAUTION...ESPECIALLY DEWPOINT AND RELATIVE
    HUMIDITY OBSERVATIONS.

INZ001>003-010>013-019-020-122300-
NORTHWEST INDIANA

CITY           SKY/WX    TMP DP  RH WIND       PRES   REMARKS
GARY /AIRPORT/ PTSUNNY   25   1  36 W21G32    30.19R WCI  10
KNOX *+        PTSUNNY   23   7  50 NW23G29   30.15R WCI   7
LA PORTE +     PTSUNNY   22   8  55 NW22G30   30.15R WCI   6
MICHIGAN CITY+ CLOUDY    21   5  49 NW16G26   30.17R WCI   7
MONTICELLO +   CLOUDY    25   7  45 NW21G28   30.15R WCI  11
RENSSELAER +   PTSUNNY   27   3  36 W20G26    30.17R WCI  13
VALPARAISO     CLOUDY    22   6  50 NW17G25   30.16R WCI   8

$$

LMZ046-743>745-122300-
SOUTHERN LAKE MICHIGAN

STATION/POSITION TIME  TEMP    WIND        PRES    WAVE
                       AIR SEA DIR/SP/G            HT
                 (UTC) (F)     (DEG/KT/KT) (MB)    (FT)
BURNS HARBOR     2101   22     310/ 22     1021.3R
MICHIGAN CITY    2100   21     270/ 27/ 30   N/A

$$

INZ004-005-014>016-021>024-122300-
NORTH CENTRAL INDIANA

CITY           SKY/WX    TMP DP  RH WIND       PRES   REMARKS
ELKHART        LGT SNOW  19   9  63 NW20G26   30.12R WCI   4
GOSHEN         HVY SNOW  18  13  80 NW17G29   30.10R VSB 1/4 WCI   3
LOGANSPORT +   PTSUNNY   25   7  46 NW16G23   30.14R WCI  12
PERU/GRISSOM   PTSUNNY   23  11  62 NW20      30.10R WCI   8
ROCHESTER +    MOSUNNY   25   3  39 NW18      30.13R WCI  11
SOUTH BEND     FLURRIES  18   9  68 NW20G25   30.13R WCI   2
WARSAW +       LGT SNOW  19  14  79 NW17G25   30.11R VSB 1   WCI   4

$$

INZ006>009-017-018-025>027-122300-
NORTHEAST INDIANA

CITY           SKY/WX    TMP DP  RH WIND       PRES   REMARKS
ANGOLA *+      CLOUDY    16  14  93 NW16      30.03R VSB 3/4 WCI   0
AUBURN +       MOSUNNY   21  10  63 W18G28    30.07R WCI   6
FORT WAYNE     LGT SNOW  20  14  77 NW16G29   30.09R WCI   6
HUNTINGTON +   MOSUNNY   20   8  60 NW12G18   30.10R WCI   8

$$

INZ028-029-035-036-043>045-051>053-122300-
WEST CENTRAL INDIANA

CITY           SKY/WX    TMP DP  RH WIND       PRES   REMARKS
CRAWFORDSVL +  CLOUDY    23  10  57 W25G33    30.18  WCI   6
GREENCASTLE +  CLOUDY    27  10  50 NW12G21   30.18R WCI  16
LAFAYETTE      PTSUNNY   25   9  50 W18G29    30.17R WCI  11
TERRE HAUTE    CLOUDY    27  16  63 NW20G25   30.22R WCI  13

$$

INZ030>032-037>040-046>048-054>057-064-065-122300-
CENTRAL INDIANA

CITY           SKY/WX    TMP DP  RH WIND       PRES   REMARKS
COLUMBUS       CLOUDY    27  21  80 W15G25    30.16R WCI  15
FISHERS *+     CLOUDY    23  18  80 NW20G32   30.14R WCI   8
FRANKFORT +    MOSUNNY   25   5  41 W26       30.16R WCI   9
GREENWOOD *+   PTSUNNY   27  19  74 W15G28    30.14R WCI  15
INDIANAPOLIS   LGT SNOW  25  17  72 NW25G36   30.14R WCI   9
-EAGLE CREEK   FLURRIES  25  18  74 NW20G25   30.14R WCI  11
KOKOMO *+      CLOUDY    23  10  58 NW25      30.12R WCI   7
MARION +       PTSUNNY   22   8  54 NW16G22   30.11R WCI   8
MT COMFORT *+  CLOUDY    25  19  80 NW15G24   30.13R WCI  12
SHELBYVILLE    LGT SNOW  26  20  77 W13       30.13R VSB 1   WCI  15
ZIONSVILLE +   CLOUDY    24  13  63 NW20G28   30.14R WCI   9

$$

INZ033-034-041-042-049-050-058-059-122300-
EAST CENTRAL INDIANA

CITY           SKY/WX    TMP DP  RH WIND       PRES   REMARKS
MUNCIE         LGT SNOW  24  17  74 NW17G26   30.09R WCI  11

$$

INZ060-061-067>069-081>083-085>088-122300-
SOUTHWEST INDIANA

CITY           SKY/WX    TMP DP  RH WIND       PRES   REMARKS
EVANSVILLE     CLOUDY    32  22  66 NW12G22   30.27R WCI  23
HUNTINGBURG *+ CLOUDY    30  19  64 NW20G26   30.24R WCI  18
WASHINGTON +   CLOUDY    29  20  70 NW22      30.23R WCI  15

$$

INZ062-063-066-070>080-084-089>092-122300-
SOUTH CENTRAL AND SOUTHEAST INDIANA

CITY           SKY/WX    TMP DP  RH WIND       PRES   REMARKS
BEDFORD +      CLOUDY    28  19  69 W7G20     30.19R WCI  21
BLOOMINGTON    LGT SNOW  26  20  77 NW10      30.17S WCI  16
MADISON *+     CLOUDY    30  19  64 W15       30.16R WCI  19
NORTH VERNON + CLOUDY    28  19  69 W12G20    30.15R WCI  18
SEYMOUR +      FLURRIES  30  19  64 W15G23    30.17R WCI  19

$$




USA.gov is the U.S. government's official web portal to all federal, state and local government web resources and services.